DECAYED

STARLINK-31709, 59383 (Decayed)

Orbit data source: Space-Track

STARLINK-31709, 59383 was a payload satellite owned by SpaceX/Seattle (US) in LEO that was launched on Tue, 02 Apr 2024 UTC via an FALCON 9 launch vehicle from the Air Force Western Test Range (AFWTR). Payload-class satellites include a variety of spacecraft equipped with specific instruments for various scientific and technological missions. These include communications satellites like Starlink; space stations such as the ISS; scientific satellites like the Hubble; Earth observation satellites from companies like Planet Labs, Umbra, and HawkEye 360; GPS; miniature CubeSats for education and research; and military/defense satellites.

Not visible in the next 10 days
Identifier
59383, 2024-062K
Orbit
Decayed
Country
Flag of USUS
Related business
Manufacturer
SpaceX/Seattle
Mission
Decayed Commercial Communications
Bus & Motor
STARLINK V2M, Unknown motor
Mass
730 kg wet, ~700 kg dry
Launch date (UTC)
2024-04-02 (2 years ago)
Launch vehicle
FALCON 9
Launch site
Air Force Western Test Range (AFWTR)
Object type
Payload
Rocket body
Debris
Shape & HBR
Box + 2 Pan, 17.7 m
Radar Cross Section
33.884 m², Large (>1 m²)

Expand to show TLE details & history
Last TLE update: 1 year ago

TLE from 1 year ago
0 STARLINK-31709
1 59383U 24062K   25143.52041807  .19895526  12098-4  33836-2 0  9998
2 59383  53.1225 148.8948 0003113 152.1913 349.0010 16.32341558 65455
Epoch: 2025-05-23T12:29Z
TLE epoch observation values (Epoch: 2025-05-23T12:29:24.121Z)
Latitude
30.18982°
Longitude
-125.5484°
Altitude
185.977 km
Speed
7.8 km/s
True Right ascension
20h 12m 42s
True Declination
30° 01' 39"
Sunlit
Object was in daylight at epoch
Visualization orbit readout
Latitude
Unknown
Longitude
Unknown
Altitude
Unknown
Speed
Unknown
Apparent Right ascension
Unknown
Apparent Declination
Unknown
Sunlit
N/A
Visualization observer readout
Local Sidereal Time
21:32:58
Azimuth
Unknown
Elevation
Unknown
Doppler factor
Unknown
Orbital elements
Apogee altitude
188.572 km
Perigee altitude
184.485 km
Semi-major axis
6,564.665 km
Eccentricity
0.00031
Inclination
53.1225°
RAAN
148.8948°
Arg. of periapsis
152.1913°
True anomaly
348.99419°
Mean anomaly
349.001°
Eccentric anomaly
348.9976°
Mean motion
4.0806 °/min
Orbital period
88.22 mins
BSTAR
0.0033836
Loading maneuver chart data...
Computing Atmospheric mass density...
Loading historical data...
Loading historical data...
Loading historical data...
Loading historical data...
Loading historical data...
Loading historical data...
Loading historical data...

Documentation

Showing up to 5 results
|